Other Public Products
Issued by NWS Grand Forks, ND

Home | Current Version | Previous Version | Graphics & Text | Print | Product List | Glossary On
Versions: 1 2 3 4 5 6 7 8 9 10 11 12 13 14 15 16 17 18 19 20 21 22 23 24 25 26 27 28 29 30 31 32 33 34 35 36 37 38 39 40 41 42 43 44 45 46 47 48 49 50
000
FPUS83 KFGF 192010
OPUFGF
PRAIRIE TO PINES WEATHER ROUNDUP
NATIONAL WEATHER SERVICE EASTERN NORTH DAKOTA/GRAND FORKS ND
200 PM CST SUN FEB 19 2017

 **SATELLITE DATA USED TO AUGMENT SKY COVER AT AUTOMATED STATIONS**
 *****  WEATHER ACROSS EASTERN NORTH DAKOTA  *****

CITY           SKY/WX    TMP DP  RH WIND       PRES   REMARKS
GRAND FORKS    PTSUNNY   44  33  65 SE18      29.67F
GRAND FORKS AF FAIR      43  37  78 SE12      29.66F
GRAND CITY NWS NOT AVBL
BUXTON         NOT AVBL
DEVILS LAKE    FAIR      39  35  86 SE17      29.59F
FARGO          FAIR      54  42  64 SE26G39   29.65F
WAHPETON ARPT  FAIR      52  43  71 SE18G24   29.67F
$$

 *****  WEATHER ACROSS CENTRAL AND WESTERN NORTH DAKOTA  *****

CITY           SKY/WX    TMP DP  RH WIND       PRES   REMARKS
JAMESTOWN      FAIR      44  40  85 SE15      29.55F
BISMARCK       FAIR      43  35  73 SE10      29.51F
MINOT          FAIR      40  35  83 E9        29.51F
MINOT AFB      CLOUDY    36  32  87 E9        29.51F
GARRISON         N/A     41  35  79 E12       29.49F
WILLISTON      CLOUDY    37  32  82 E7        29.48F
DICKINSON      FAIR      50  37  61 SE7       29.43S
HETTINGER      FAIR      59  35  40 S9        29.45F
$$

 *****  OTHER OBSERVATIONS NORTHEAST NORTH DAKOTA  *****

CITY           SKY/WX    TMP DP  RH WIND       PRES   REMARKS
WALHALLA       NOT AVBL
LANGDON        NOT AVBL
CAVALIER       FAIR      37  32  81 E6        29.71F
GRAFTON        FAIR      36  36 100 E13       29.71F
CANDO          NOT AVBL
FORT TOTTEN      N/A     45  38  76 SE12      29.95S
ROLLA          FAIR      34  34 100 E12       29.62F
RUGBY            N/A     36  36 100 E17       29.55F
 ***** THE ABOVE OBSERVATIONS ARE NON NWS ARE NOT QUALITY
        CONTROLLED AND MAY MIS-REPORT RAIN FOR SNOW...
$$

 *****  OTHER OBSERVATIONS SOUTHEAST NORTH DAKOTA *****

CITY           SKY/WX    TMP DP  RH WIND       PRES   REMARKS
COOPERSTOWN    FAIR      41  39  93 SE17      29.61F
VALLEY CITY    FAIR      46  46 100 SE16      29.62F
OAKES          NOT AVBL
GWINNER        FAIR      52  46  82 E20       29.61F
SHEYENNE NWR     N/A     52  44  73 SE18      29.95S
BUFFALO        NOT AVBL
WYNDMERE       NOT AVBL
 ***** THE ABOVE OBSERVATIONS ARE NON NWS ARE NOT QUALITY
       CONTROLLED AND MAY MIS-REPORT RAIN FOR SNOW...
$$

  *****  WEATHER ACROSS NORTHERN MINNESOTA  *****

CITY           SKY/WX    TMP DP  RH WIND       PRES   REMARKS
FLAG ISLAND    FAIR      41  28  60 E9        29.85F
WARROAD        FAIR      39  34  81 E13       29.82F
ROSEAU         FAIR      39  34  81 E9        29.80S
HALLOCK        FAIR      43  36  75 E12       29.72F
THF RVR FALLS  FAIR      41  33  73 E16       29.74F
HALSTAD          N/A     48  43  81 SE18        N/A
FOSSTON        FAIR      45  34  65 SE12      29.74F
BAUDETTE       PTSUNNY   40  30  67 E10       29.84F
WASKISH        PTSUNNY   48  30  49 SE13G20   29.84F
CROOKSTON      FAIR      45  36  70 SE16      29.70F
$$
  *****  WEATHER ACROSS CENTRAL AND WEST MINNESOTA  *****

CITY           SKY/WX    TMP DP  RH WIND       PRES   REMARKS
BEMIDJI        FAIR      43  32  65 SE12      29.80F
PARK RAPIDS    FAIR      49  33  54 SE15G21   29.78F
WADENA         FAIR      50  37  62 SE15      29.77F
DETROIT LAKES  FAIR      48  37  66 SE20      29.73F
MOORHEAD       FAIR      55  45  67 SE15G24   29.66F
FERGUS FALLS   FAIR      54  43  66 SE21G26   29.73F
ELBOW LAKE     FAIR      55  45  68 E18G29    29.72F
MORRIS MN      FAIR      55  48  76 SE24      29.71F
STAPLES        FAIR      52  36  54 SE9G17    29.80F
WHEATON        FAIR      55  46  71 SE21      29.69F
$$
  *****  WEATHER ELSEWHERE ACROSS MINNESOTA  *****

CITY           SKY/WX    TMP DP  RH WIND       PRES   REMARKS
DULUTH         PTSUNNY   41  31  67 E9        29.94S
INTRNTL FALLS  PTSUNNY   43  30  60 E9        29.90S
ELY            FAIR      48  27  43 SE6       29.94R
CLOQUET        FAIR      43  28  56 E9        29.94S
BRAINERD       FAIR      51  36  56 E6        29.85F
HIBBING        CLOUDY    46  28  49 SE10      29.91S
ALEXANDRIA     FAIR      53  43  68 SE16G25   29.77F
SAINT CLOUD    FAIR      57  39  51 SE13      29.84F
MINNEAPOLIS    PTSUNNY   59  40  49 SE14      29.89F
$$

  *****  WEATHER ACROSS SOUTH DAKOTA  *****

CITY           SKY/WX    TMP DP  RH WIND       PRES   REMARKS
SIOUX FALLS    CLOUDY    63  50  62 S20G28    29.72F
BROOKINGS      FAIR      59  50  72 S20G26    29.69F
WATERTOWN      FAIR      56  47  71 SE16G23   29.65F
HURON          FAIR      59  46  62 S18G25    29.61R
SISSETON         N/A     57  49  74 S21       29.64F
ABERDEEN       FAIR      60  46  59 S17G26    29.57F
MITCHELL       FAIR      62  50  64 S22G29    29.62F
PIERRE         FAIR      63  38  39 S20       29.50F
MOBRIDGE       FAIR      48  37  65 SE12      29.49S
RAPID CITY     FAIR      68  31  25 SW18      29.48F
$$

  *****  SOME WEATHER IN NEARBY STATES *****

CITY           SKY/WX    TMP DP  RH WIND       PRES   REMARKS
GLASGOW MT     CLOUDY    35  32  88 E10       29.44S FOG
GREAT FALLS MT CLOUDY    48  27  44 SW13      29.46R
CHEYENNE WY    FAIR      55  25  31 SE10      29.64F
SCOTTSBLUFF NE FAIR      58  33  39 CALM      29.60F
OMAHA NE       CLOUDY    68  49  50 SE23      29.83S
DES MOINES IA  CLOUDY    72  46  39 S21       29.89F
DAVENPORT IA   FAIR      70  37  29 S7        29.99F
CHICAGO IL     FAIR      68  31  25 N3        30.03F
EAU CLAIRE WI  FAIR      59  32  36 S10       29.96S
LA CROSSE WI   FAIR      60  36  40 S7        29.97F
$$

  *****  SOME NATIONAL WEATHER *****

CITY           SKY/WX    TMP DP  RH WIND       PRES   REMARKS
LA GUARDIA NY  FAIR      66  30  26 W14G22    29.79S
RALEIGH NC     FAIR      72  42  34 VRB6      29.96F
ATLANTA GA     FAIR      68  49  50 N13       30.06F
NEW ORLEANS LA PTSUNNY   78  66  66 N6        30.03F
OKLAHOMA CITY  PTSUNNY   72  59  63 S20       29.86F
ALBUQUERQUE NM PTSUNNY   49  35  58 S5        29.86F
SALT LAKE CITY PTSUNNY   48  41  76 SE10      29.70S
LOS ANGELES CA PTSUNNY   57  50  77 SW9       29.97F
BOISE ID       CLOUDY    46  36  68 S7        29.64F
SEATTLE WA     LGT RAIN  46  39  76 S15G25    29.48R
$$

*** WEATHER ACROSS MANITOBA...SASKATCHEWAN AND ONTARIO ***
                ***ONTARIO***

CITY           SKY/WX    TMP DP  RH WIND       PRES   REMARKS
GERALDTON      MOSUNNY   36  25  64 W3        30.04R
THUNDER BAY    PTSUNNY   39  30  70 E9        30.03S
SIOUX LOOKOUT  PTSUNNY   41  25  52 SE3       29.96R
TORONTO        MOSUNNY   52  34  50 W18G24    29.91R
BIG TROUT LK   CLOUDY    25  21  86 SE3       30.07S
PICKLE LAKE    CLOUDY    28  23  80 VRB3      30.02R
DRYDEN         CLOUDY    39  30  70 SE7       29.94R
KENORA         PTSUNNY   39  28  65 E9        29.88F
$$
                *** MANITOBA***

CITY           SKY/WX    TMP DP  RH WIND       PRES   REMARKS
BRANDON        PTSUNNY   32  28  86 E31G38    29.65F WCI  17
DAUPHIN        FRZ RAIN  30  28  93 E17       29.76F WCI  18
ISLAND LAKE    CLOUDY    23  16  74 SE12      30.00S WCI  12
PILOT MOUND      N/A     36  30  80 E16         N/A
THE PAS        CLOUDY    28  21  74 E13       29.89F WCI  18
THOMPSON       CLOUDY    21  16  79 NE6       29.98F WCI  14
WINNIPEG       PTSUNNY   37  30  75 E12G18    29.77F
LYNN LAKE      CLOUDY    23  21  93 E5        29.93F WCI  17
CHURCHILL      FLURRIES  10   7  85 S9        30.10S WCI  -2
GILLAM         CLOUDY    18  12  79 NE5       30.06S WCI  11
$$
                ***SASKATCHEWAN***

CITY           SKY/WX    TMP DP  RH WIND       PRES   REMARKS
ESTEVAN        CLOUDY    34  32  93 E17G25    29.53F FOG     WCI  23
KINDERSLEY     CLOUDY    36  32  87 SE13      29.39F
LLOYDMINSTER   FLURRIES  34  32  93 SE15      29.42F WCI  24
PRINCE ALBERT  CLOUDY    32  28  86 E17G28    29.64F WCI  21
REGINA         CLOUDY    36  32  87 E20G26    29.52F
YORKTON        MOSUNNY   34  28  80 E18G24    29.65F WC



USA.gov is the U.S. government's official web portal to all federal, state and local government web resources and services.